owner,sensor,date,latitude,longitude,vertical_datum,sea_water_temperature,qcFlag 
WAVCIS,ioos:station:WAVCIS:CSI16:1,2010-03-01T00:00:00Z,29.4012,-89.0355,10.0,12.867,11111222 
WAVCIS,ioos:station:WAVCIS:CSI16:1,2010-03-01T00:15:00Z,29.4012,-89.0355,10.0,12.865,11111222 
WAVCIS,ioos:station:WAVCIS:CSI16:1,2010-03-01T00:30:00Z,29.4012,-89.0355,10.0,12.819,11111222 
WAVCIS,ioos:station:WAVCIS:CSI16:1,2010-03-01T00:45:00Z,29.4012,-89.0355,10.0,12.848,11111222 
WAVCIS,ioos:station:WAVCIS:CSI16:1,2010-03-01T01:00:00Z,29.4012,-89.0355,10.0,12.821,11111222 
WAVCIS,ioos:station:WAVCIS:CSI16:1,2010-03-01T01:15:00Z,29.4012,-89.0355,10.0,12.809,11111222 
WAVCIS,ioos:station:WAVCIS:CSI16:1,2010-03-01T01:30:00Z,29.4012,-89.0355,10.0,12.797,11111222 
WAVCIS,ioos:station:WAVCIS:CSI16:1,2010-03-01T01:45:00Z,29.4012,-89.0355,10.0,12.797,11111222 
WAVCIS,ioos:station:WAVCIS:CSI16:1,2010-03-01T02:00:00Z,29.4012,-89.0355,10.0,12.817,11111222 
WAVCIS,ioos:station:WAVCIS:CSI16:1,2010-03-01T02:15:00Z,29.4012,-89.0355,10.0,12.797,11111222 
WAVCIS,ioos:station:WAVCIS:CSI16:1,2010-03-01T02:30:00Z,29.4012,-89.0355,10.0,12.732,11111222 
WAVCIS,ioos:station:WAVCIS:CSI16:1,2010-03-01T02:45:00Z,29.4012,-89.0355,10.0,12.718,11111222 
WAVCIS,ioos:station:WAVCIS:CSI16:1,2010-03-01T03:00:00Z,29.4012,-89.0355,10.0,12.812,11111222 
WAVCIS,ioos:station:WAVCIS:CSI16:1,2010-03-01T03:15:00Z,29.4012,-89.0355,10.0,12.949,11111222 
WAVCIS,ioos:station:WAVCIS:CSI16:1,2010-03-01T03:30:00Z,29.4012,-89.0355,10.0,12.974,11111222 
WAVCIS,ioos:station:WAVCIS:CSI16:1,2010-03-01T03:45:00Z,29.4012,-89.0355,10.0,13.061,11111222 
WAVCIS,ioos:station:WAVCIS:CSI16:1,2010-03-01T04:00:00Z,29.4012,-89.0355,10.0,12.927,11111222 
WAVCIS,ioos:station:WAVCIS:CSI16:1,2010-03-01T04:15:00Z,29.4012,-89.0355,10.0,13.427,11111222 
WAVCIS,ioos:station:WAVCIS:CSI16:1,2010-03-01T04:30:00Z,29.4012,-89.0355,10.0,13.411,11111222 
WAVCIS,ioos:station:WAVCIS:CSI16:1,2010-03-01T04:45:00Z,29.4012,-89.0355,10.0,13.573,11111222 
WAVCIS,ioos:station:WAVCIS:CSI16:1,2010-03-01T05:00:00Z,29.4012,-89.0355,10.0,13.517,11111222 
WAVCIS,ioos:station:WAVCIS:CSI16:1,2010-03-01T05:15:00Z,29.4012,-89.0355,10.0,13.403,11111222 
WAVCIS,ioos:station:WAVCIS:CSI16:1,2010-03-01T05:30:00Z,29.4012,-89.0355,10.0,13.44,11111222 
WAVCIS,ioos:station:WAVCIS:CSI16:1,2010-03-01T05:45:00Z,29.4012,-89.0355,10.0,13.485,11111222 
WAVCIS,ioos:station:WAVCIS:CSI16:1,2010-03-01T06:00:00Z,29.4012,-89.0355,10.0,13.53,11111222 
WAVCIS,ioos:station:WAVCIS:CSI16:1,2010-03-01T06:15:00Z,29.4012,-89.0355,10.0,13.61,11111222 
WAVCIS,ioos:station:WAVCIS:CSI16:1,2010-03-01T06:30:00Z,29.4012,-89.0355,10.0,13.554,11111222 
WAVCIS,ioos:station:WAVCIS:CSI16:1,2010-03-01T06:45:00Z,29.4012,-89.0355,10.0,13.58,11111222 
WAVCIS,ioos:station:WAVCIS:CSI16:1,2010-03-01T07:00:00Z,29.4012,-89.0355,10.0,13.627,11111222 
WAVCIS,ioos:station:WAVCIS:CSI16:1,2010-03-01T07:15:00Z,29.4012,-89.0355,10.0,13.429,11111222 
WAVCIS,ioos:station:WAVCIS:CSI16:1,2010-03-01T07:30:00Z,29.4012,-89.0355,10.0,13.393,11111222 
WAVCIS,ioos:station:WAVCIS:CSI16:1,2010-03-01T07:45:00Z,29.4012,-89.0355,10.0,13.51,11111222 
WAVCIS,ioos:station:WAVCIS:CSI16:1,2010-03-01T08:00:00Z,29.4012,-89.0355,10.0,13.448,11111222 
WAVCIS,ioos:station:WAVCIS:CSI16:1,2010-03-01T08:15:00Z,29.4012,-89.0355,10.0,13.693,11111222 
WAVCIS,ioos:station:WAVCIS:CSI16:1,2010-03-01T08:30:00Z,29.4012,-89.0355,10.0,13.884,11111222 
WAVCIS,ioos:station:WAVCIS:CSI16:1,2010-03-01T08:45:00Z,29.4012,-89.0355,10.0,13.773,11111222 
WAVCIS,ioos:station:WAVCIS:CSI16:1,2010-03-01T09:00:00Z,29.4012,-89.0355,10.0,13.509,11111222 
WAVCIS,ioos:station:WAVCIS:CSI16:1,2010-03-01T09:15:00Z,29.4012,-89.0355,10.0,13.491,11111222 
WAVCIS,ioos:station:WAVCIS:CSI16:1,2010-03-01T09:30:00Z,29.4012,-89.0355,10.0,13.644,11111222 
WAVCIS,ioos:station:WAVCIS:CSI16:1,2010-03-01T09:45:00Z,29.4012,-89.0355,10.0,13.772,11111222 
WAVCIS,ioos:station:WAVCIS:CSI16:1,2010-03-01T10:00:00Z,29.4012,-89.0355,10.0,13.745,11111222 
WAVCIS,ioos:station:WAVCIS:CSI16:1,2010-03-01T10:15:00Z,29.4012,-89.0355,10.0,13.743,11111222 
WAVCIS,ioos:station:WAVCIS:CSI16:1,2010-03-01T10:30:00Z,29.4012,-89.0355,10.0,13.634,11111222 
WAVCIS,ioos:station:WAVCIS:CSI16:1,2010-03-01T10:45:00Z,29.4012,-89.0355,10.0,13.516,11111222 
WAVCIS,ioos:station:WAVCIS:CSI16:1,2010-03-01T11:00:00Z,29.4012,-89.0355,10.0,13.495,11111222 
WAVCIS,ioos:station:WAVCIS:CSI16:1,2010-03-01T11:15:00Z,29.4012,-89.0355,10.0,13.334,11111222 
WAVCIS,ioos:station:WAVCIS:CSI16:1,2010-03-01T11:30:00Z,29.4012,-89.0355,10.0,13.227,11111222 
WAVCIS,ioos:station:WAVCIS:CSI16:1,2010-03-01T11:45:00Z,29.4012,-89.0355,10.0,13.16,11111222 
WAVCIS,ioos:station:WAVCIS:CSI16:1,2010-03-01T12:00:00Z,29.4012,-89.0355,10.0,13.144,11111222 
WAVCIS,ioos:station:WAVCIS:CSI16:1,2010-03-01T12:15:00Z,29.4012,-89.0355,10.0,13.133,11111222 
WAVCIS,ioos:station:WAVCIS:CSI16:1,2010-03-01T12:30:00Z,29.4012,-89.0355,10.0,13.1,11111222 
WAVCIS,ioos:station:WAVCIS:CSI16:1,2010-03-01T12:45:00Z,29.4012,-89.0355,10.0,13.04,11111222 
WAVCIS,ioos:station:WAVCIS:CSI16:1,2010-03-01T13:00:00Z,29.4012,-89.0355,10.0,13.033,11111222 
WAVCIS,ioos:station:WAVCIS:CSI16:1,2010-03-01T13:15:00Z,29.4012,-89.0355,10.0,13.056,11111222 
WAVCIS,ioos:station:WAVCIS:CSI16:1,2010-03-01T13:30:00Z,29.4012,-89.0355,10.0,13.066,11111222 
WAVCIS,ioos:station:WAVCIS:CSI16:1,2010-03-01T13:45:00Z,29.4012,-89.0355,10.0,13.144,11111222 
WAVCIS,ioos:station:WAVCIS:CSI16:1,2010-03-01T14:00:00Z,29.4012,-89.0355,10.0,13.133,11111222 
WAVCIS,ioos:station:WAVCIS:CSI16:1,2010-03-01T14:15:00Z,29.4012,-89.0355,10.0,13.129,11111222 
WAVCIS,ioos:station:WAVCIS:CSI16:1,2010-03-01T14:30:00Z,29.4012,-89.0355,10.0,13.056,11111222 
WAVCIS,ioos:station:WAVCIS:CSI16:1,2010-03-01T14:45:00Z,29.4012,-89.0355,10.0,13.306,11111222 
WAVCIS,ioos:station:WAVCIS:CSI16:1,2010-03-01T15:00:00Z,29.4012,-89.0355,10.0,13.163,11111222 
WAVCIS,ioos:station:WAVCIS:CSI16:1,2010-03-01T15:15:00Z,29.4012,-89.0355,10.0,13.018,11111222 
WAVCIS,ioos:station:WAVCIS:CSI16:1,2010-03-01T15:30:00Z,29.4012,-89.0355,10.0,13.188,11111222 
WAVCIS,ioos:station:WAVCIS:CSI16:1,2010-03-01T15:45:00Z,29.4012,-89.0355,10.0,13.214,11111222 
WAVCIS,ioos:station:WAVCIS:CSI16:1,2010-03-01T16:00:00Z,29.4012,-89.0355,10.0,13.383,11111222 
WAVCIS,ioos:station:WAVCIS:CSI16:1,2010-03-01T16:15:00Z,29.4012,-89.0355,10.0,13.591,11111222 
WAVCIS,ioos:station:WAVCIS:CSI16:1,2010-03-01T16:30:00Z,29.4012,-89.0355,10.0,13.697,11111222 
WAVCIS,ioos:station:WAVCIS:CSI16:1,2010-03-01T16:45:00Z,29.4012,-89.0355,10.0,13.836,11111222 
WAVCIS,ioos:station:WAVCIS:CSI16:1,2010-03-01T17:00:00Z,29.4012,-89.0355,10.0,13.566,11111222 
WAVCIS,ioos:station:WAVCIS:CSI16:1,2010-03-01T17:15:00Z,29.4012,-89.0355,10.0,14.275,11111222 
WAVCIS,ioos:station:WAVCIS:CSI16:1,2010-03-01T17:30:00Z,29.4012,-89.0355,10.0,13.848,11111222 
WAVCIS,ioos:station:WAVCIS:CSI16:1,2010-03-01T17:45:00Z,29.4012,-89.0355,10.0,13.532,11111222 
WAVCIS,ioos:station:WAVCIS:CSI16:1,2010-03-01T18:00:00Z,29.4012,-89.0355,10.0,13.311,11111222 
WAVCIS,ioos:station:WAVCIS:CSI16:1,2010-03-01T18:15:00Z,29.4012,-89.0355,10.0,13.557,11111222 
WAVCIS,ioos:station:WAVCIS:CSI16:1,2010-03-01T18:30:00Z,29.4012,-89.0355,10.0,13.705,11111222 
WAVCIS,ioos:station:WAVCIS:CSI16:1,2010-03-01T18:45:00Z,29.4012,-89.0355,10.0,13.654,11111222 
WAVCIS,ioos:station:WAVCIS:CSI16:1,2010-03-01T19:00:00Z,29.4012,-89.0355,10.0,13.756,11111222 
WAVCIS,ioos:station:WAVCIS:CSI16:1,2010-03-01T19:15:00Z,29.4012,-89.0355,10.0,13.662,11111222 
WAVCIS,ioos:station:WAVCIS:CSI16:1,2010-03-01T19:30:00Z,29.4012,-89.0355,10.0,13.48,11111222 
WAVCIS,ioos:station:WAVCIS:CSI16:1,2010-03-01T19:45:00Z,29.4012,-89.0355,10.0,13.725,11111222 
WAVCIS,ioos:station:WAVCIS:CSI16:1,2010-03-01T20:00:00Z,29.4012,-89.0355,10.0,12.594,11111222 
WAVCIS,ioos:station:WAVCIS:CSI16:1,2010-03-01T20:15:00Z,29.4012,-89.0355,10.0,13.231,11111222 
WAVCIS,ioos:station:WAVCIS:CSI16:1,2010-03-01T20:30:00Z,29.4012,-89.0355,10.0,12.807,11111222 
WAVCIS,ioos:station:WAVCIS:CSI16:1,2010-03-01T20:45:00Z,29.4012,-89.0355,10.0,13.364,11111222 
WAVCIS,ioos:station:WAVCIS:CSI16:1,2010-03-01T21:00:00Z,29.4012,-89.0355,10.0,13.707,11111222 
WAVCIS,ioos:station:WAVCIS:CSI16:1,2010-03-01T21:15:00Z,29.4012,-89.0355,10.0,13.099,11111222 
WAVCIS,ioos:station:WAVCIS:CSI16:1,2010-03-01T21:30:00Z,29.4012,-89.0355,10.0,13.231,11111222 
WAVCIS,ioos:station:WAVCIS:CSI16:1,2010-03-01T21:45:00Z,29.4012,-89.0355,10.0,13.277,11111222 
WAVCIS,ioos:station:WAVCIS:CSI16:1,2010-03-01T22:00:00Z,29.4012,-89.0355,10.0,13.352,11111222 
WAVCIS,ioos:station:WAVCIS:CSI16:1,2010-03-01T22:15:00Z,29.4012,-89.0355,10.0,13.245,11111222 
WAVCIS,ioos:station:WAVCIS:CSI16:1,2010-03-01T22:30:00Z,29.4012,-89.0355,10.0,13.128,11111222 
WAVCIS,ioos:station:WAVCIS:CSI16:1,2010-03-01T22:45:00Z,29.4012,-89.0355,10.0,12.823,11111222 
WAVCIS,ioos:station:WAVCIS:CSI16:1,2010-03-01T23:00:00Z,29.4012,-89.0355,10.0,12.652,11111222 
WAVCIS,ioos:station:WAVCIS:CSI16:1,2010-03-01T23:15:00Z,29.4012,-89.0355,10.0,12.526,11111222 
WAVCIS,ioos:station:WAVCIS:CSI16:1,2010-03-01T23:30:00Z,29.4012,-89.0355,10.0,12.728,11111222 
WAVCIS,ioos:station:WAVCIS:CSI16:1,2010-03-01T23:45:00Z,29.4012,-89.0355,10.0,12.883,11111222 
WAVCIS,ioos:station:WAVCIS:CSI16:1,2010-03-02T00:00:00Z,29.4012,-89.0355,10.0,13.02,11111222 
WAVCIS,ioos:station:WAVCIS:CSI16:1,2010-03-02T00:15:00Z,29.4012,-89.0355,10.0,13.169,11111222 
WAVCIS,ioos:station:WAVCIS:CSI16:1,2010-03-02T00:30:00Z,29.4012,-89.0355,10.0,13.262,11111222 
WAVCIS,ioos:station:WAVCIS:CSI16:1,2010-03-02T00:45:00Z,29.4012,-89.0355,10.0,13.358,11111222 
WAVCIS,ioos:station:WAVCIS:CSI16:1,2010-03-02T01:00:00Z,29.4012,-89.0355,10.0,13.282,11111222 
WAVCIS,ioos:station:WAVCIS:CSI16:1,2010-03-02T01:15:00Z,29.4012,-89.0355,10.0,13.375,11111222 
WAVCIS,ioos:station:WAVCIS:CSI16:1,2010-03-02T01:30:00Z,29.4012,-89.0355,10.0,13.479,11111222 
WAVCIS,ioos:station:WAVCIS:CSI16:1,2010-03-02T01:45:00Z,29.4012,-89.0355,10.0,12.967,11111222 
WAVCIS,ioos:station:WAVCIS:CSI16:1,2010-03-02T02:00:00Z,29.4012,-89.0355,10.0,12.947,11111222 
WAVCIS,ioos:station:WAVCIS:CSI16:1,2010-03-02T02:15:00Z,29.4012,-89.0355,10.0,12.986,11111222 
WAVCIS,ioos:station:WAVCIS:CSI16:1,2010-03-02T02:30:00Z,29.4012,-89.0355,10.0,13.38,11111222 
WAVCIS,ioos:station:WAVCIS:CSI16:1,2010-03-02T02:45:00Z,29.4012,-89.0355,10.0,13.242,11111222 
WAVCIS,ioos:station:WAVCIS:CSI16:1,2010-03-02T03:00:00Z,29.4012,-89.0355,10.0,13.193,11111222 
WAVCIS,ioos:station:WAVCIS:CSI16:1,2010-03-02T03:15:00Z,29.4012,-89.0355,10.0,13.143,11111222 
WAVCIS,ioos:station:WAVCIS:CSI16:1,2010-03-02T03:30:00Z,29.4012,-89.0355,10.0,13.039,11111222 
WAVCIS,ioos:station:WAVCIS:CSI16:1,2010-03-02T03:45:00Z,29.4012,-89.0355,10.0,13.041,11111222 
WAVCIS,ioos:station:WAVCIS:CSI16:1,2010-03-02T04:00:00Z,29.4012,-89.0355,10.0,12.961,11111222 
WAVCIS,ioos:station:WAVCIS:CSI16:1,2010-03-02T04:15:00Z,29.4012,-89.0355,10.0,13.038,11111222 
WAVCIS,ioos:station:WAVCIS:CSI16:1,2010-03-02T04:30:00Z,29.4012,-89.0355,10.0,13.23,11111222 
WAVCIS,ioos:station:WAVCIS:CSI16:1,2010-03-02T04:45:00Z,29.4012,-89.0355,10.0,13.333,11111222 
WAVCIS,ioos:station:WAVCIS:CSI16:1,2010-03-02T05:00:00Z,29.4012,-89.0355,10.0,13.319,11111222 
WAVCIS,ioos:station:WAVCIS:CSI16:1,2010-03-02T05:15:00Z,29.4012,-89.0355,10.0,13.226,11111222 
WAVCIS,ioos:station:WAVCIS:CSI16:1,2010-03-02T05:30:00Z,29.4012,-89.0355,10.0,13.191,11111222 
WAVCIS,ioos:station:WAVCIS:CSI16:1,2010-03-02T05:45:00Z,29.4012,-89.0355,10.0,13.385,11111222 
WAVCIS,ioos:station:WAVCIS:CSI16:1,2010-03-02T06:00:00Z,29.4012,-89.0355,10.0,13.461,11111222 
WAVCIS,ioos:station:WAVCIS:CSI16:1,2010-03-02T06:15:00Z,29.4012,-89.0355,10.0,13.605,11111222 
WAVCIS,ioos:station:WAVCIS:CSI16:1,2010-03-02T06:30:00Z,29.4012,-89.0355,10.0,13.707,11111222 
WAVCIS,ioos:station:WAVCIS:CSI16:1,2010-03-02T06:45:00Z,29.4012,-89.0355,10.0,13.749,11111222 
WAVCIS,ioos:station:WAVCIS:CSI16:1,2010-03-02T07:00:00Z,29.4012,-89.0355,10.0,13.856,11111222 
WAVCIS,ioos:station:WAVCIS:CSI16:1,2010-03-02T07:15:00Z,29.4012,-89.0355,10.0,13.943,11111222 
WAVCIS,ioos:station:WAVCIS:CSI16:1,2010-03-02T07:30:00Z,29.4012,-89.0355,10.0,14.005,11111222 
WAVCIS,ioos:station:WAVCIS:CSI16:1,2010-03-02T07:45:00Z,29.4012,-89.0355,10.0,14.08,11111222 
WAVCIS,ioos:station:WAVCIS:CSI16:1,2010-03-02T08:00:00Z,29.4012,-89.0355,10.0,14.167,11111222 
WAVCIS,ioos:station:WAVCIS:CSI16:1,2010-03-02T08:15:00Z,29.4012,-89.0355,10.0,14.199,11111222 
WAVCIS,ioos:station:WAVCIS:CSI16:1,2010-03-02T08:30:00Z,29.4012,-89.0355,10.0,14.218,11111222 
WAVCIS,ioos:station:WAVCIS:CSI16:1,2010-03-02T08:45:00Z,29.4012,-89.0355,10.0,14.22,11111222 
WAVCIS,ioos:station:WAVCIS:CSI16:1,2010-03-02T09:00:00Z,29.4012,-89.0355,10.0,14.255,11111222 
WAVCIS,ioos:station:WAVCIS:CSI16:1,2010-03-02T09:15:00Z,29.4012,-89.0355,10.0,14.2,11111222 
WAVCIS,ioos:station:WAVCIS:CSI16:1,2010-03-02T09:30:00Z,29.4012,-89.0355,10.0,14.191,11111222 
WAVCIS,ioos:station:WAVCIS:CSI16:1,2010-03-02T09:45:00Z,29.4012,-89.0355,10.0,14.212,11111222 
WAVCIS,ioos:station:WAVCIS:CSI16:1,2010-03-02T10:00:00Z,29.4012,-89.0355,10.0,14.107,11111222 
WAVCIS,ioos:station:WAVCIS:CSI16:1,2010-03-02T10:15:00Z,29.4012,-89.0355,10.0,14.011,11111222 
WAVCIS,ioos:station:WAVCIS:CSI16:1,2010-03-02T10:30:00Z,29.4012,-89.0355,10.0,13.979,11111222 
WAVCIS,ioos:station:WAVCIS:CSI16:1,2010-03-02T10:45:00Z,29.4012,-89.0355,10.0,13.988,11111222 
WAVCIS,ioos:station:WAVCIS:CSI16:1,2010-03-02T11:00:00Z,29.4012,-89.0355,10.0,13.932,11111222 
WAVCIS,ioos:station:WAVCIS:CSI16:1,2010-03-02T11:15:00Z,29.4012,-89.0355,10.0,13.892,11111222 
WAVCIS,ioos:station:WAVCIS:CSI16:1,2010-03-02T11:30:00Z,29.4012,-89.0355,10.0,13.853,11111222 
WAVCIS,ioos:station:WAVCIS:CSI16:1,2010-03-02T11:45:00Z,29.4012,-89.0355,10.0,13.821,11111222 
WAVCIS,ioos:station:WAVCIS:CSI16:1,2010-03-02T12:00:00Z,29.4012,-89.0355,10.0,13.795,11111222 
WAVCIS,ioos:station:WAVCIS:CSI16:1,2010-03-02T12:15:00Z,29.4012,-89.0355,10.0,13.854,11111222 
WAVCIS,ioos:station:WAVCIS:CSI16:1,2010-03-02T12:30:00Z,29.4012,-89.0355,10.0,13.739,11111222 
WAVCIS,ioos:station:WAVCIS:CSI16:1,2010-03-02T12:45:00Z,29.4012,-89.0355,10.0,13.751,11111222 
WAVCIS,ioos:station:WAVCIS:CSI16:1,2010-03-02T13:00:00Z,29.4012,-89.0355,10.0,13.728,11111222 
WAVCIS,ioos:station:WAVCIS:CSI16:1,2010-03-02T13:15:00Z,29.4012,-89.0355,10.0,13.762,11111222 
WAVCIS,ioos:station:WAVCIS:CSI16:1,2010-03-02T13:30:00Z,29.4012,-89.0355,10.0,13.689,11111222 
WAVCIS,ioos:station:WAVCIS:CSI16:1,2010-03-02T13:45:00Z,29.4012,-89.0355,10.0,13.819,11111222 
WAVCIS,ioos:station:WAVCIS:CSI16:1,2010-03-02T14:00:00Z,29.4012,-89.0355,10.0,13.656,11111222 
WAVCIS,ioos:station:WAVCIS:CSI16:1,2010-03-02T14:15:00Z,29.4012,-89.0355,10.0,13.582,11111222 
WAVCIS,ioos:station:WAVCIS:CSI16:1,2010-03-02T14:30:00Z,29.4012,-89.0355,10.0,13.645,11111222 
WAVCIS,ioos:station:WAVCIS:CSI16:1,2010-03-02T14:45:00Z,29.4012,-89.0355,10.0,13.179,11111222 
WAVCIS,ioos:station:WAVCIS:CSI16:1,2010-03-02T15:00:00Z,29.4012,-89.0355,10.0,13.145,11111222 
WAVCIS,ioos:station:WAVCIS:CSI16:1,2010-03-02T15:15:00Z,29.4012,-89.0355,10.0,13.045,11111222 
WAVCIS,ioos:station:WAVCIS:CSI16:1,2010-03-02T15:30:00Z,29.4012,-89.0355,10.0,12.889,11111222 
WAVCIS,ioos:station:WAVCIS:CSI16:1,2010-03-02T15:45:00Z,29.4012,-89.0355,10.0,12.669,11111222 
WAVCIS,ioos:station:WAVCIS:CSI16:1,2010-03-02T16:00:00Z,29.4012,-89.0355,10.0,12.701,11111222 
WAVCIS,ioos:station:WAVCIS:CSI16:1,2010-03-02T16:15:00Z,29.4012,-89.0355,10.0,12.563,11111222 
WAVCIS,ioos:station:WAVCIS:CSI16:1,2010-03-02T16:30:00Z,29.4012,-89.0355,10.0,12.493,11111222 
WAVCIS,ioos:station:WAVCIS:CSI16:1,2010-03-02T16:45:00Z,29.4012,-89.0355,10.0,12.454,11111222 
WAVCIS,ioos:station:WAVCIS:CSI16:1,2010-03-02T17:00:00Z,29.4012,-89.0355,10.0,12.506,11111222 
WAVCIS,ioos:station:WAVCIS:CSI16:1,2010-03-02T17:15:00Z,29.4012,-89.0355,10.0,12.517,11111222 
WAVCIS,ioos:station:WAVCIS:CSI16:1,2010-03-02T17:30:00Z,29.4012,-89.0355,10.0,12.485,11111222 
WAVCIS,ioos:station:WAVCIS:CSI16:1,2010-03-02T17:45:00Z,29.4012,-89.0355,10.0,12.498,11111222 
WAVCIS,ioos:station:WAVCIS:CSI16:1,2010-03-02T18:00:00Z,29.4012,-89.0355,10.0,12.543,11111222 
WAVCIS,ioos:station:WAVCIS:CSI16:1,2010-03-02T18:15:00Z,29.4012,-89.0355,10.0,12.628,11111222 
WAVCIS,ioos:station:WAVCIS:CSI16:1,2010-03-02T18:30:00Z,29.4012,-89.0355,10.0,12.62,11111222 
WAVCIS,ioos:station:WAVCIS:CSI16:1,2010-03-02T18:45:00Z,29.4012,-89.0355,10.0,12.642,11111222 
WAVCIS,ioos:station:WAVCIS:CSI16:1,2010-03-02T19:00:00Z,29.4012,-89.0355,10.0,12.568,11111222 
WAVCIS,ioos:station:WAVCIS:CSI16:1,2010-03-02T19:15:00Z,29.4012,-89.0355,10.0,12.545,11111222 
WAVCIS,ioos:station:WAVCIS:CSI16:1,2010-03-02T19:30:00Z,29.4012,-89.0355,10.0,12.446,11111222 
WAVCIS,ioos:station:WAVCIS:CSI16:1,2010-03-02T19:45:00Z,29.4012,-89.0355,10.0,12.416,11111222 
WAVCIS,ioos:station:WAVCIS:CSI16:1,2010-03-02T20:00:00Z,29.4012,-89.0355,10.0,12.318,11111222 
WAVCIS,ioos:station:WAVCIS:CSI16:1,2010-03-02T20:15:00Z,29.4012,-89.0355,10.0,12.257,11111222 
WAVCIS,ioos:station:WAVCIS:CSI16:1,2010-03-02T20:30:00Z,29.4012,-89.0355,10.0,12.186,11111222 
WAVCIS,ioos:station:WAVCIS:CSI16:1,2010-03-02T20:45:00Z,29.4012,-89.0355,10.0,12.165,11111222 
WAVCIS,ioos:station:WAVCIS:CSI16:1,2010-03-02T21:00:00Z,29.4012,-89.0355,10.0,12.168,11111222 
WAVCIS,ioos:station:WAVCIS:CSI16:1,2010-03-02T21:15:00Z,29.4012,-89.0355,10.0,12.185,11111222 
WAVCIS,ioos:station:WAVCIS:CSI16:1,2010-03-02T21:30:00Z,29.4012,-89.0355,10.0,12.206,11111222 
WAVCIS,ioos:station:WAVCIS:CSI16:1,2010-03-02T21:45:00Z,29.4012,-89.0355,10.0,12.279,11111222 
WAVCIS,ioos:station:WAVCIS:CSI16:1,2010-03-02T22:00:00Z,29.4012,-89.0355,10.0,12.26,11111222 
WAVCIS,ioos:station:WAVCIS:CSI16:1,2010-03-02T22:15:00Z,29.4012,-89.0355,10.0,12.239,11111222 
WAVCIS,ioos:station:WAVCIS:CSI16:1,2010-03-02T22:30:00Z,29.4012,-89.0355,10.0,12.197,11111222 
WAVCIS,ioos:station:WAVCIS:CSI16:1,2010-03-02T22:45:00Z,29.4012,-89.0355,10.0,12.186,11111222 
WAVCIS,ioos:station:WAVCIS:CSI16:1,2010-03-02T23:00:00Z,29.4012,-89.0355,10.0,12.139,11111222 
WAVCIS,ioos:station:WAVCIS:CSI16:1,2010-03-02T23:15:00Z,29.4012,-89.0355,10.0,12.101,11111222 
WAVCIS,ioos:station:WAVCIS:CSI16:1,2010-03-02T23:30:00Z,29.4012,-89.0355,10.0,12.065,11111222 
WAVCIS,ioos:station:WAVCIS:CSI16:1,2010-03-02T23:45:00Z,29.4012,-89.0355,10.0,12.06,11111222 
WAVCIS,ioos:station:WAVCIS:CSI16:1,2010-03-03T00:00:00Z,29.4012,-89.0355,10.0,12.059,11111222 
WAVCIS,ioos:station:WAVCIS:CSI16:1,2010-03-03T00:15:00Z,29.4012,-89.0355,10.0,12.104,11111222 
WAVCIS,ioos:station:WAVCIS:CSI16:1,2010-03-03T00:30:00Z,29.4012,-89.0355,10.0,12.123,11111222 
WAVCIS,ioos:station:WAVCIS:CSI16:1,2010-03-03T00:45:00Z,29.4012,-89.0355,10.0,12.185,11111222 
WAVCIS,ioos:station:WAVCIS:CSI16:1,2010-03-03T01:00:00Z,29.4012,-89.0355,10.0,12.152,11111222 
WAVCIS,ioos:station:WAVCIS:CSI16:1,2010-03-03T01:15:00Z,29.4012,-89.0355,10.0,12.063,11111222 
WAVCIS,ioos:station:WAVCIS:CSI16:1,2010-03-03T01:30:00Z,29.4012,-89.0355,10.0,11.986,11111222 
WAVCIS,ioos:station:WAVCIS:CSI16:1,2010-03-03T01:45:00Z,29.4012,-89.0355,10.0,11.969,11111222 
WAVCIS,ioos:station:WAVCIS:CSI16:1,2010-03-03T02:00:00Z,29.4012,-89.0355,10.0,11.971,11111222 
WAVCIS,ioos:station:WAVCIS:CSI16:1,2010-03-03T02:15:00Z,29.4012,-89.0355,10.0,11.92,11111222 
WAVCIS,ioos:station:WAVCIS:CSI16:1,2010-03-03T02:30:00Z,29.4012,-89.0355,10.0,11.866,11111222 
WAVCIS,ioos:station:WAVCIS:CSI16:1,2010-03-03T02:45:00Z,29.4012,-89.0355,10.0,11.827,11111222 
WAVCIS,ioos:station:WAVCIS:CSI16:1,2010-03-03T03:00:00Z,29.4012,-89.0355,10.0,11.852,11111222 
WAVCIS,ioos:station:WAVCIS:CSI16:1,2010-03-03T03:15:00Z,29.4012,-89.0355,10.0,11.797,11111222 
WAVCIS,ioos:station:WAVCIS:CSI16:1,2010-03-03T03:30:00Z,29.4012,-89.0355,10.0,11.804,11111222 
WAVCIS,ioos:station:WAVCIS:CSI16:1,2010-03-03T03:45:00Z,29.4012,-89.0355,10.0,11.861,11111222 
WAVCIS,ioos:station:WAVCIS:CSI16:1,2010-03-03T04:00:00Z,29.4012,-89.0355,10.0,11.837,11111222 
WAVCIS,ioos:station:WAVCIS:CSI16:1,2010-03-03T04:15:00Z,29.4012,-89.0355,10.0,11.83,11111222 
WAVCIS,ioos:station:WAVCIS:CSI16:1,2010-03-03T04:30:00Z,29.4012,-89.0355,10.0,11.8,11111222 
WAVCIS,ioos:station:WAVCIS:CSI16:1,2010-03-03T04:45:00Z,29.4012,-89.0355,10.0,11.793,11111222 
WAVCIS,ioos:station:WAVCIS:CSI16:1,2010-03-03T05:00:00Z,29.4012,-89.0355,10.0,11.798,11111222 
WAVCIS,ioos:station:WAVCIS:CSI16:1,2010-03-03T05:15:00Z,29.4012,-89.0355,10.0,11.822,11111222 
WAVCIS,ioos:station:WAVCIS:CSI16:1,2010-03-03T05:30:00Z,29.4012,-89.0355,10.0,11.876,11111222 
WAVCIS,ioos:station:WAVCIS:CSI16:1,2010-03-03T05:45:00Z,29.4012,-89.0355,10.0,11.846,11111222 
WAVCIS,ioos:station:WAVCIS:CSI16:1,2010-03-03T06:00:00Z,29.4012,-89.0355,10.0,11.9,11111222 
WAVCIS,ioos:station:WAVCIS:CSI16:1,2010-03-03T06:15:00Z,29.4012,-89.0355,10.0,11.91,11111222 
WAVCIS,ioos:station:WAVCIS:CSI16:1,2010-03-03T06:30:00Z,29.4012,-89.0355,10.0,11.913,11111222 
WAVCIS,ioos:station:WAVCIS:CSI16:1,2010-03-03T06:45:00Z,29.4012,-89.0355,10.0,11.91,11111222 
WAVCIS,ioos:station:WAVCIS:CSI16:1,2010-03-03T07:00:00Z,29.4012,-89.0355,10.0,11.922,11111222 
WAVCIS,ioos:station:WAVCIS:CSI16:1,2010-03-03T07:15:00Z,29.4012,-89.0355,10.0,11.948,11111222 
WAVCIS,ioos:station:WAVCIS:CSI16:1,2010-03-03T07:30:00Z,29.4012,-89.0355,10.0,11.883,11111222 
WAVCIS,ioos:station:WAVCIS:CSI16:1,2010-03-03T07:45:00Z,29.4012,-89.0355,10.0,11.903,11111222 
WAVCIS,ioos:station:WAVCIS:CSI16:1,2010-03-03T08:00:00Z,29.4012,-89.0355,10.0,11.908,11111222 
WAVCIS,ioos:station:WAVCIS:CSI16:1,2010-03-03T08:15:00Z,29.4012,-89.0355,10.0,11.896,11111222 
WAVCIS,ioos:station:WAVCIS:CSI16:1,2010-03-03T08:30:00Z,29.4012,-89.0355,10.0,11.938,11111222 
WAVCIS,ioos:station:WAVCIS:CSI16:1,2010-03-03T08:45:00Z,29.4012,-89.0355,10.0,11.96,11111222 
WAVCIS,ioos:station:WAVCIS:CSI16:1,2010-03-03T09:00:00Z,29.4012,-89.0355,10.0,11.969,11111222 
WAVCIS,ioos:station:WAVCIS:CSI16:1,2010-03-03T09:15:00Z,29.4012,-89.0355,10.0,11.969,11111222 
WAVCIS,ioos:station:WAVCIS:CSI16:1,2010-03-03T09:30:00Z,29.4012,-89.0355,10.0,11.969,11111222 
WAVCIS,ioos:station:WAVCIS:CSI16:1,2010-03-03T09:45:00Z,29.4012,-89.0355,10.0,11.979,11111222 
WAVCIS,ioos:station:WAVCIS:CSI16:1,2010-03-03T10:00:00Z,29.4012,-89.0355,10.0,12.01,11111222 
WAVCIS,ioos:station:WAVCIS:CSI16:1,2010-03-03T10:15:00Z,29.4012,-89.0355,10.0,11.998,11111222 
WAVCIS,ioos:station:WAVCIS:CSI16:1,2010-03-03T10:30:00Z,29.4012,-89.0355,10.0,11.98,11111222 
WAVCIS,ioos:station:WAVCIS:CSI16:1,2010-03-03T10:45:00Z,29.4012,-89.0355,10.0,11.967,11111222 
WAVCIS,ioos:station:WAVCIS:CSI16:1,2010-03-03T11:00:00Z,29.4012,-89.0355,10.0,11.978,11111222 
WAVCIS,ioos:station:WAVCIS:CSI16:1,2010-03-03T11:15:00Z,29.4012,-89.0355,10.0,11.956,11111222 
WAVCIS,ioos:station:WAVCIS:CSI16:1,2010-03-03T11:30:00Z,29.4012,-89.0355,10.0,11.99,11111222 
WAVCIS,ioos:station:WAVCIS:CSI16:1,2010-03-03T11:45:00Z,29.4012,-89.0355,10.0,11.947,11111222 
WAVCIS,ioos:station:WAVCIS:CSI16:1,2010-03-03T12:00:00Z,29.4012,-89.0355,10.0,11.943,11111222 
WAVCIS,ioos:station:WAVCIS:CSI16:1,2010-03-03T12:15:00Z,29.4012,-89.0355,10.0,11.875,11111222 
WAVCIS,ioos:station:WAVCIS:CSI16:1,2010-03-03T12:30:00Z,29.4012,-89.0355,10.0,11.891,11111222 
WAVCIS,ioos:station:WAVCIS:CSI16:1,2010-03-03T12:45:00Z,29.4012,-89.0355,10.0,11.821,11111222 
WAVCIS,ioos:station:WAVCIS:CSI16:1,2010-03-03T13:00:00Z,29.4012,-89.0355,10.0,11.795,11111222 
WAVCIS,ioos:station:WAVCIS:CSI16:1,2010-03-03T13:15:00Z,29.4012,-89.0355,10.0,11.778,11111222 
WAVCIS,ioos:station:WAVCIS:CSI16:1,2010-03-03T13:30:00Z,29.4012,-89.0355,10.0,11.757,11111222 
WAVCIS,ioos:station:WAVCIS:CSI16:1,2010-03-03T13:45:00Z,29.4012,-89.0355,10.0,11.75,11111222 
WAVCIS,ioos:station:WAVCIS:CSI16:1,2010-03-03T14:00:00Z,29.4012,-89.0355,10.0,11.693,11111222 
WAVCIS,ioos:station:WAVCIS:CSI16:1,2010-03-03T14:15:00Z,29.4012,-89.0355,10.0,11.611,11111222 
WAVCIS,ioos:station:WAVCIS:CSI16:1,2010-03-03T14:30:00Z,29.4012,-89.0355,10.0,11.57,11111222 
WAVCIS,ioos:station:WAVCIS:CSI16:1,2010-03-03T14:45:00Z,29.4012,-89.0355,10.0,11.529,11111222 